Theta_e
315 314 316 315 314 310 306 302 302 301 300 299 299 299 299 300 300 302 305 306 310 314 316 317 319 321 322 320 322 325 322 321 321 318 318 320 321 322 323 323 323 324 326
313 312 312 311 309 305 302 301 301 300 300 299 297 298 298 299 300 301 303 307 308 312 313 314 316 317 319 321 317 319 317 321 318 315 315 316 317 317 318 320 320 322 321
310 309 309 307 304 301 301 300 299 299 298 297 297 297 298 299 299 299 301 304 309 308 312 313 314 318 317 317 319 315 322 319 315 314 316 316 314 314 315 316 317 317 317
308 306 306 304 301 299 299 298 297 297 297 297 296 297 298 298 297 298 299 300 302 301 303 308 311 312 312 312 312 317 316 314 313 315 313 312 313 315 316 317 317 316 316
306 304 304 302 299 298 298 297 297 297 296 296 295 297 297 298 296 296 297 297 296 297 299 301 303 304 305 307 310 312 313 312 312 311 311 313 313 312 313 313 314 315 316
304 303 302 301 298 297 297 296 296 296 297 296 292 294 296 296 296 296 295 295 295 295 296 297 299 301 304 307 309 311 312 312 312 310 309 309 310 310 311 312 312 313 314
304 302 301 300 297 297 297 296 296 294 294 295 295 294 294 294 295 295 295 294 293 293 294 295 297 298 302 304 308 310 311 309 307 306 306 306 307 308 309 309 310 311 312
303 301 301 299 297 297 296 295 294 293 294 294 296 295 292 291 293 293 294 292 292 293 292 293 294 295 298 303 302 304 305 304 304 303 303 304 304 305 306 307 308 309 310
303 302 300 299 298 297 296 296 296 295 293 293 295 297 292 294 292 293 292 292 291 292 292 292 293 293 296 300 296 297 296 298 299 300 301 302 303 304 305 306 307 307 308
302 300 300 299 298 297 296 296 295 296 298 293 292 291 293 296 293 289 291 291 291 290 291 291 292 292 296 296 293 292 292 294 294 296 297 298 300 301 303 304 305 306 307
300 300 299 298 297 296 297 296 294 295 296 297 295 291 291 291 292 294 289 288 289 290 290 291 292 293 295 294 293 289 290 291 291 293 294 295 297 298 300 301 303 304 305
297 298 298 298 297 296 295 295 295 295 295 295 296 294 293 291 291 291 291 290 289 288 289 290 291 293 293 291 287 286 286 287 289 290 291 292 293 295 297 299 300 302 303
295 295 296 296 296 296 295 294 293 294 294 294 295 294 294 294 293 293 293 289 287 287 287 290 291 292 291 290 288 284 283 285 287 289 289 290 291 293 294 296 298 299 299
296 296 295 295 295 294 294 293 293 293 292 293 293 294 293 293 292 292 291 289 285 286 286 287 289 291 290 289 285 282 286 281 284 286 287 289 290 291 293 294 295 296 297
295 295 294 293 294 294 293 292 291 291 291 291 292 292 292 291 291 292 292 293 292 285 284 287 286 289 288 286 285 285 284 282 284 284 285 286 288 290 291 292 293 294 295
293 292 293 292 293 292 291 291 291 291 289 290 290 290 289 290 290 290 289 290 290 292 288 288 287 287 287 285 284 283 283 280 282 282 284 285 287 288 289 289 291 292 293
291 291 291 291 291 290 290 290 290 290 288 288 288 288 288 289 288 288 288 288 287 288 289 283 286 286 285 284 281 282 282 283 284 282 283 285 286 287 287 288 289 290 291
291 290 290 289 289 288 289 288 288 288 287 286 287 286 286 285 287 287 287 286 286 286 287 282 281 281 281 282 282 281 280 281 282 282 283 285 285 285 286 287 287 288 288
289 290 289 288 288 287 287 287 288 287 286 287 286 285 285 284 284 285 285 285 285 283 284 284 280 281 280 280 279 280 281 282 282 281 283 283 283 284 285 286 286 286 286
289 288 288 287 288 287 287 287 286 287 286 286 287 286 284 283 284 284 283 284 284 283 282 281 280 278 278 279 279 279 279 281 281 282 282 282 282 283 284 284 285 284 284
286 287 287 286 286 286 285 286 285 285 285 285 285 285 284 284 285 285 283 283 282 282 281 280 278 278 277 276 277 280 279 280 282 283 282 283 282 282 283 283 283 283 284
285 286 285 286 286 285 287 288 286 284 284 283 284 284 283 283 284 286 286 285 283 281 280 280 278 277 278 278 279 278 278 278 279 283 281 280 281 280 282 282 283 283 284
284 283 284 285 285 286 288 288 288 285 284 284 284 283 282 281 282 282 285 285 283 284 284 281 279 279 278 279 279 278 278 279 279 280 279 276 280 279 281 280 282 282 283
282 282 283 284 284 285 287 288 287 286 285 285 284 283 282 281 281 281 281 281 280 281 281 280 281 280 281 281 280 280 280 280 279 278 277 273 279 278 280 280 282 282 282
281 282 282 283 284 285 286 287 287 286 284 284 284 284 283 282 281 283 281 280 279 279 282 281 281 282 282 282 281 280 277 275 274 275 276 274 276 276 277 278 280 281 281
279 281 281 282 283 283 285 285 285 285 284 284 283 282 283 282 283 283 281 280 277 277 277 277 279 281 281 280 281 279 278 274 274 273 275 273 275 274 274 278 279 279 279
Wind_Speed
11 10 10 9 8 8 7 7 6 5 5 4 4 3 3 2 2 1 1 4 5 2 3 4 5 6 7 6 8 11 11 11 14 12 9 10 13 14 12 11 11 11 12
11 11 11 10 9 8 7 6 6 6 5 4 4 2 2 2 2 3 2 4 5 4 3 4 5 6 8 9 6 10 8 11 13 9 7 10 12 10 10 12 11 12 13
14 13 11 10 9 8 9 7 6 5 5 4 4 2 2 3 3 3 4 3 6 12 8 5 3 7 8 6 10 5 12 12 9 7 9 12 9 7 8 7 7 10 12
16 14 11 10 9 8 8 8 7 6 5 5 4 3 3 4 4 5 4 4 3 3 6 9 8 8 7 5 5 7 9 9 7 10 9 8 6 8 9 10 10 10 11
17 13 11 10 12 9 9 8 8 8 7 6 4 4 3 4 3 3 5 5 5 3 4 8 11 9 6 4 5 6 8 8 8 8 8 9 10 8 8 8 9 10 11
17 13 11 12 12 10 9 9 10 7 6 6 5 4 3 3 3 4 5 4 4 5 4 3 2 5 7 7 6 7 9 9 11 11 9 9 9 9 9 9 9 9 11
18 16 11 12 12 12 12 13 9 11 6 8 7 4 4 3 5 5 5 4 5 4 4 3 2 3 5 6 7 10 11 10 10 9 9 9 10 10 10 10 11 12 11
18 16 15 14 15 11 14 14 13 8 4 10 5 5 5 5 4 5 4 4 5 3 4 4 5 5 4 5 9 11 12 10 10 9 10 10 10 10 10 10 10 11 11
16 15 17 14 14 12 12 14 14 14 9 9 9 3 4 5 7 5 6 5 4 3 3 4 5 5 5 6 6 9 10 9 10 11 11 12 12 12 11 11 12 12 12
16 16 15 15 14 11 13 12 11 11 9 10 6 6 4 1 5 5 5 6 5 4 4 4 5 5 6 6 8 10 9 10 11 11 11 11 11 11 11 11 11 12 13
15 15 16 15 14 12 13 14 14 14 10 9 8 5 4 3 2 2 5 6 5 5 3 3 4 5 6 5 4 7 10 10 9 10 10 11 11 11 12 12 12 13 13
10 15 14 13 13 13 15 14 15 16 12 10 9 9 8 6 6 4 3 6 7 6 5 5 6 5 5 4 5 5 7 7 7 7 7 8 8 9 10 11 12 13 15
9 13 15 15 13 14 14 13 14 16 16 12 12 10 8 7 5 6 5 4 4 4 5 5 6 6 5 4 3 4 4 8 7 8 7 8 8 7 8 10 12 13 14
9 12 14 15 16 14 13 13 10 11 13 13 15 11 9 8 8 7 6 7 4 4 5 5 7 7 6 5 4 0 2 3 6 7 7 8 8 9 9 11 12 12 13
8 10 13 16 16 15 15 15 11 14 13 13 13 11 9 8 7 7 6 7 6 8 10 10 6 10 8 7 5 3 4 3 8 6 5 6 8 9 11 11 11 11 12
9 9 11 14 15 15 15 16 13 13 14 11 10 13 11 8 9 8 7 6 5 6 6 5 10 10 10 7 7 5 5 6 8 7 7 7 7 7 8 9 11 12 13
10 10 10 13 14 15 15 16 17 16 17 15 13 13 14 11 9 9 9 7 7 6 6 4 6 9 12 10 8 6 5 6 4 7 8 8 9 8 9 9 11 12 14
11 11 11 12 12 14 15 17 18 15 17 19 16 14 15 8 12 11 10 12 10 10 6 9 9 8 8 10 8 8 6 5 6 5 8 11 10 9 9 11 13 14 15
10 12 11 13 12 13 16 17 18 17 17 19 19 19 18 14 14 11 11 11 10 7 8 6 6 7 5 8 8 7 8 7 6 7 10 10 10 9 11 13 13 13 14
13 10 11 12 13 14 15 16 17 19 18 17 17 18 20 21 20 16 13 12 11 10 9 8 7 8 8 7 7 8 8 7 5 5 7 8 8 10 13 14 14 13 14
11 12 10 11 13 12 12 16 16 18 18 18 19 19 20 21 27 23 14 14 13 11 10 9 8 7 9 8 11 8 7 5 4 5 5 4 4 6 6 10 11 12 13
12 12 11 12 14 11 20 24 20 15 17 19 20 19 18 19 24 28 28 28 23 19 15 11 10 11 12 10 9 8 6 4 3 5 3 5 5 7 7 7 12 14 16
12 12 12 11 14 15 24 24 26 16 16 18 20 18 17 15 20 20 28 27 27 29 24 17 16 14 12 13 11 11 8 6 3 4 1 8 6 7 6 7 14 14 15
13 12 13 13 13 13 24 24 24 19 18 19 20 21 20 20 21 22 20 19 18 18 19 11 11 10 8 12 12 9 10 7 2 4 4 5 4 6 6 7 17 15 12
15 15 14 15 14 15 21 24 22 15 17 19 17 19 20 21 26 33 21 21 19 16 20 19 12 12 14 18 13 8 8 8 5 4 8 5 5 6 8 8 8 10 10
17 14 16 15 17 18 21 24 21 12 16 14 15 17 24 23 28 36 23 20 19 18 17 14 12 14 16 15 18 11 8 8 5 4 7 5 4 3 3 5 6 6 7
Wind_Direction
187 183 186 184 182 178 179 177 168 163 149 137 132 136 112 85 91 87 89 353 346 16 122 122 126 114 101 107 88 86 85 78 76 60 53 55 40 31 33 43 35 37 31
188 188 184 186 183 186 179 176 169 166 162 151 133 104 76 71 81 109 110 84 28 17 78 95 118 126 137 107 104 80 100 99 74 56 49 61 40 24 33 32 41 45 33
191 188 186 186 182 180 175 167 165 165 158 145 138 145 146 135 126 130 144 145 103 48 50 63 69 91 87 95 84 69 92 80 67 69 74 59 41 26 35 35 31 43 29
191 190 185 186 177 176 177 175 172 166 167 173 167 161 158 149 133 116 119 128 109 101 73 40 56 68 75 78 103 77 76 77 74 62 60 52 46 43 36 34 34 18 13
193 189 189 183 174 178 184 179 174 176 173 170 154 135 123 133 137 122 114 101 92 94 99 68 57 47 63 62 77 101 93 87 78 73 68 56 41 31 25 14 13 12 11
192 193 190 180 179 177 180 181 175 176 176 154 138 120 111 131 165 151 130 111 89 95 94 111 118 70 45 70 74 87 88 84 66 50 43 40 33 24 16 10 3 5 4
190 191 190 185 185 184 184 181 171 167 157 161 135 119 126 155 178 162 144 127 116 106 101 101 119 113 85 77 81 75 72 67 55 42 37 31 24 17 9 3 356 353 351
194 192 187 184 186 183 185 184 178 170 157 183 179 154 175 179 186 179 162 130 113 117 119 114 120 122 129 105 72 63 50 42 35 31 25 21 15 9 2 354 351 348 346
206 199 194 186 184 187 187 187 187 178 168 189 215 213 166 208 155 178 194 178 156 147 141 138 134 129 134 122 103 81 45 37 30 19 18 13 7 2 358 353 351 349 347
223 214 203 194 189 190 190 188 188 193 180 176 190 222 247 143 189 164 196 201 202 182 164 160 150 143 150 124 94 60 42 31 21 15 9 6 2 359 354 353 352 351 351
224 218 213 205 197 192 193 189 188 193 198 186 186 166 200 197 234 182 160 174 202 191 168 176 169 160 157 148 104 57 36 22 12 7 1 1 357 353 351 348 349 350 349
214 215 213 212 208 204 197 190 190 198 196 201 197 192 178 175 189 176 158 165 183 177 174 175 177 174 164 147 91 68 31 12 359 353 353 355 349 349 345 347 351 351 348
218 220 211 212 209 208 211 203 196 196 198 199 196 197 199 202 173 186 178 142 166 161 179 193 183 172 171 169 98 13 31 355 340 337 337 336 335 337 341 345 350 350 347
232 222 214 216 214 213 212 209 213 212 202 201 203 205 198 192 185 179 165 155 160 172 182 168 187 185 175 177 95 226 303 297 308 319 320 325 326 327 336 343 346 344 342
255 236 222 215 216 212 204 205 209 206 207 209 209 199 200 197 197 189 186 174 164 178 202 188 180 190 182 175 165 227 262 240 280 280 293 307 307 319 331 335 334 336 336
257 235 229 228 225 216 206 204 212 207 204 207 207 202 199 192 193 190 190 189 209 192 187 162 198 176 183 189 170 221 248 276 250 263 277 279 277 305 321 327 323 325 328
276 257 234 225 222 222 216 213 218 212 201 205 204 207 206 193 192 189 188 185 189 196 181 167 174 174 182 195 196 211 233 243 240 233 263 272 285 302 308 308 310 320 326
299 269 258 241 222 222 220 221 219 216 209 199 198 208 212 195 201 192 187 187 186 188 185 171 181 182 199 197 201 213 220 237 243 240 256 260 275 284 296 307 315 317 322
294 287 264 254 238 228 224 223 219 223 226 216 199 195 198 192 204 198 199 184 179 172 192 180 159 181 182 191 209 209 220 227 226 226 249 254 259 277 296 301 300 304 317
316 286 261 259 251 243 232 228 225 225 218 220 220 210 199 194 197 196 194 197 178 174 181 186 178 177 187 180 201 204 203 211 207 201 223 241 273 280 289 292 297 304 312
321 310 295 264 257 248 245 233 226 228 225 220 217 210 211 204 203 195 189 188 180 179 178 185 190 186 191 179 199 186 204 203 210 209 223 217 293 295 283 293 292 297 307
324 321 306 283 270 254 248 241 231 224 227 222 223 219 211 203 205 201 200 195 187 181 184 183 189 200 199 198 179 180 181 192 178 165 206 260 268 267 265 267 277 289 296
313 308 299 281 271 265 257 246 236 230 226 226 224 219 213 207 201 199 206 201 200 200 194 186 190 195 189 188 173 176 182 192 193 138 184 278 222 233 243 255 271 274 278
301 296 292 286 276 266 264 258 245 235 230 232 229 225 214 206 199 196 190 197 201 202 199 195 206 188 186 174 174 177 176 185 237 255 216 260 231 237 253 262 270 263 260
295 292 286 283 274 269 263 262 253 240 237 236 232 232 224 214 202 199 192 194 191 196 200 196 197 184 175 170 163 151 169 170 201 212 194 242 242 261 264 252 248 237 266
286 283 280 274 271 269 261 256 256 246 243 235 231 235 226 219 204 200 197 193 196 187 175 174 180 181 178 178 176 174 175 184 183 201 194 214 229 234 257 225 230 272 265